Simultaneous Nadir Overpasses (SNOs) Predictions

Prediction of SNOs between LANDSAT-8 and METOP-B Satellite Orbit:

Table of predicted SNOs for the next 14.0 days since TLE Epoch: 9/26/2014
Index Date (LANDSAT-8) Time (LANDSAT-8) Lat,Lon (LANDSAT-8) SZA (LANDSAT-8 ) Date (METOP-B) Time (METOP-B) Lat,Lon (METOP-B) SZA (METOP-B ) Distance(km) Time Diff (sec)
1 09/27/2014 15:58:28 80.88, -23.10 84.63 09/27/2014 15:57:14 81.00, -23.30 84.67 13.73 74
2 09/27/2014 16:47:43 -81.18, 148.86 94.70 09/27/2014 16:47:42 -81.18, 148.73 94.71 2.21 1
3 09/27/2014 17:37:08 81.20, -43.09 85.38 09/27/2014 17:38:21 81.20, -43.20 85.41 1.87 73
4 09/30/2014 11:33:04 80.42, 38.15 84.88 09/30/2014 11:31:50 80.69, 37.39 85.00 32.22 74
5 09/30/2014 12:22:03 -81.19,-144.56 93.56 09/30/2014 12:22:01 -81.19,-144.55 93.56 0.21 2
6 09/30/2014 13:11:28 81.21, 23.48 86.52 09/30/2014 13:12:40 81.21, 23.53 86.56 0.80 72
7 10/03/2014 07:56:26 -81.18, -78.28 92.47 10/03/2014 07:56:20 -81.19, -78.25 92.46 0.82 6
8 10/03/2014 08:45:51 81.21, 89.75 87.61 10/03/2014 08:46:59 81.21, 89.84 87.65 1.46 68
9 10/06/2014 03:30:53 -81.18, -11.94 91.37 10/06/2014 03:30:40 -81.18, -11.99 91.38 0.95 13
10 10/06/2014 04:20:18 81.20, 156.09 88.70 10/06/2014 04:21:19 81.21, 156.10 88.73 0.35 61
11 10/08/2014 23:05:23 -81.18, 54.46 90.28 10/08/2014 23:04:59 -81.19, 54.60 90.27 2.60 24




NCC Satellite Simultaneous Nadir Overpasses (SNOs) Prediction Service
